Location: Unspecified
(0.0000°N, 0.0000°E)
Time: 16:21:10
(UTC+00:00)

COSMOS 2501 (GLONASS) - Visible Passes

Search period start: 21 March 2019 00:00
Search period end: 31 March 2019 00:00
Orbit: 19093 x 19167 km, 64.1° (Epoch: 20 March)

Date Brightness Start Highest point End Pass type
(mag) Time Alt. Az. Time Alt. Az. Time Alt. Az.
21 Mar ? 16:39:49 10° NNW 19:05:50 86° W 21:35:51 10° SSE visible
22 Mar ? 14:56:44 10° N 17:38:57 66° E 19:51:57 10° SSE visible
25 Mar ? 05:14:52 10° SSW 07:32:53 72° W 10:11:49 10° N visible
26 Mar ? 03:31:34 10° SSW 06:06:07 80° E 08:28:47 10° NNE visible
27 Mar ? 01:46:23 10° S 04:39:31 52° E 06:42:44 10° NNE visible
27 Mar ? 19:45:35 10° NW 21:26:29 33° W 04:45:24 10° NE visible
28 Mar ? 17:52:24 10° NNW 20:00:19 59° W 22:47:11 10° S visible
29 Mar ? 16:07:31 10° NNW 18:33:30 86° W 21:03:33 10° SSE visible
30 Mar ? 14:24:27 10° N 17:06:37 66° E 19:19:39 10° SSE visible
